Tracking 30995 objects as of 7-Jul-2025
HD Live streaming from Space Station
objects crossing your sky now

IRIDIUM 47 DEB

Track IRIDIUM 47 DEB now!
10-day predictions


NORAD ID: 40251
Int'l Code: 1997-082L
Perigee: 716.2 km
Apogee: 902.9 km
Inclination: 86.3 °
Period: 100.9 minutes
Semi major axis: 7180 km
RCS: Unknown
Launch date: December 20, 1997
Source: United States (US)
Launch site: AIR FORCE WESTERN TEST RANGE (AFWTR)

Note: This is SATELLITE DEBRIS
Your satellite tracking list
SHIYUAN 4
Track 1 satellite(s)




NASA's NSSDC Master Catalog

Two Line Element Set (TLE):
1 40251U 97082L   25187.39384923  .00004481  00000-0  16837-2 0  9996
2 40251  86.3326 162.8806 0129980 186.4815 173.4703 14.26809478552304
Source of the keplerian elements: AFSPC